SB KEPS @ AMSAT $ORB12180.O Orbital Elements 12180.OSCAR
HR AMSAT ORBITAL ELEMENTS FOR OSCAR SATELLITES FROM WA5QGD FORT WORTH,TX June 28, 2012 Send SUBSCRIBE KEPS/UNSUBSCRIBE KEPS to majordomo@amsat.org only BID: ORB12180.O TO ALL RADIO AMATEURS BT
Satellite: AO-07 Catalog number: 07530 Epoch time: 12179.59984713 Element set: 416 Inclination: 101.4024 deg RA of node: 176.4086 deg Eccentricity: 0.0011607 Arg of perigee: 262.7051 deg Mean anomaly: 097.2699 deg Mean motion: 12.53589972 rev/day Decay rate: -2.7e-07 rev/day^2 Epoch rev: 72135 Checksum: 313
Satellite: FO-29 Catalog number: 24278 Epoch time: 12179.83410817 Element set: 0888 Inclination: 098.5868 deg RA of node: 279.0949 deg Eccentricity: 0.0350858 Arg of perigee: 001.8865 deg Mean anomaly: 358.3506 deg Mean motion: 13.52984340 rev/day Decay rate: -4.4e-07 rev/day^2 Epoch rev: 78339 Checksum: 370
Satellite: SO-33 Catalog number: 25509 Epoch time: 12179.67941329 Element set: 0266 Inclination: 031.4366 deg RA of node: 274.3159 deg Eccentricity: 0.0352773 Arg of perigee: 295.0830 deg Mean anomaly: 061.3578 deg Mean motion: 14.28782466 rev/day Decay rate: 1.36e-06 rev/day^2 Epoch rev: 71415 Checksum: 326
Satellite: RS-22 Catalog number: 27939 Epoch time: 12180.41083271 Element set: 488 Inclination: 097.8122 deg RA of node: 020.6510 deg Eccentricity: 0.0012456 Arg of perigee: 226.8360 deg Mean anomaly: 133.1804 deg Mean motion: 14.64050497 rev/day Decay rate: 2.26e-06 rev/day^2 Epoch rev: 46752 Checksum: 284
Satellite: VO-52 Catalog number: 28650 Epoch time: 12180.12044898 Element set: 139 Inclination: 097.5955 deg RA of node: 210.5400 deg Eccentricity: 0.0026830 Arg of perigee: 008.0643 deg Mean anomaly: 352.1024 deg Mean motion: 14.83007221 rev/day Decay rate: 7.00e-06 rev/day^2 Epoch rev: 38659 Checksum: 274
Satellite: HO-68 Catalog number: 36122 Epoch time: 12180.16054872 Element set: 595 Inclination: 100.3600 deg RA of node: 239.2857 deg Eccentricity: 0.0007874 Arg of perigee: 084.5300 deg Mean anomaly: 275.6709 deg Mean motion: 13.16296461 rev/day Decay rate: -4.4e-07 rev/day^2 Epoch rev: 12183 Checksum: 294
/EX SB KEPS @ AMSAT $ORB12180.D Orbital Elements 12180.MICROS
HR AMSAT ORBITAL ELEMENTS FOR THE MICROSATS FROM WA5QGD FORT WORTH,TX June 28, 2012 Send SUBSCRIBE KEPS/UNSUBSCRIBE KEPS to majordomo@amsat.org only BID: ORB12180.D TO ALL RADIO AMATEURS BT
Satellite: UO-11 Catalog number: 14781 Epoch time: 12179.73203756 Element set: 905 Inclination: 097.9538 deg RA of node: 239.1605 deg Eccentricity: 0.0009280 Arg of perigee: 006.7938 deg Mean anomaly: 353.3396 deg Mean motion: 14.80473899 rev/day Decay rate: 2.30e-06 rev/day^2 Epoch rev: 52149 Checksum: 330
Satellite: AO-16 Catalog number: 20439 Epoch time: 12180.47620509 Element set: 499 Inclination: 098.4314 deg RA of node: 123.5343 deg Eccentricity: 0.0011480 Arg of perigee: 122.1760 deg Mean anomaly: 238.0537 deg Mean motion: 14.32061237 rev/day Decay rate: 2.8e-07 rev/day^2 Epoch rev: 17161 Checksum: 269
Satellite: LO-19 Catalog number: 20442 Epoch time: 12179.86876309 Element set: 0439 Inclination: 098.3962 deg RA of node: 125.9121 deg Eccentricity: 0.0012651 Arg of perigee: 116.5680 deg Mean anomaly: 243.6797 deg Mean motion: 14.32279499 rev/day Decay rate: 1.20e-06 rev/day^2 Epoch rev: 17171 Checksum: 323
Satellite: AO-27 Catalog number: 22825 Epoch time: 12180.44528867 Element set: 137 Inclination: 098.5738 deg RA of node: 123.0856 deg Eccentricity: 0.0007415 Arg of perigee: 245.8461 deg Mean anomaly: 114.1954 deg Mean motion: 14.29466906 rev/day Decay rate: -5.7e-07 rev/day^2 Epoch rev: 97808 Checksum: 335
Satellite: IO-26 Catalog number: 22826 Epoch time: 12180.44400835 Element set: 888 Inclination: 098.5697 deg RA of node: 123.4505 deg Eccentricity: 0.0007979 Arg of perigee: 240.7110 deg Mean anomaly: 119.3274 deg Mean motion: 14.29741980 rev/day Decay rate: 5.6e-07 rev/day^2 Epoch rev: 97821 Checksum: 324
Satellite: GO-32 Catalog number: 25397 Epoch time: 12180.36446321 Element set: 810 Inclination: 098.3623 deg RA of node: 158.5229 deg Eccentricity: 0.0000318 Arg of perigee: 215.7977 deg Mean anomaly: 144.3202 deg Mean motion: 14.23280696 rev/day Decay rate: 2.6e-07 rev/day^2 Epoch rev: 72561 Checksum: 291
Satellite: NO-44 Catalog number: 26931 Epoch time: 12179.74348262 Element set: 0075 Inclination: 067.0524 deg RA of node: 093.1346 deg Eccentricity: 0.0007676 Arg of perigee: 259.8587 deg Mean anomaly: 100.1642 deg Mean motion: 14.29808670 rev/day Decay rate: 2.24e-06 rev/day^2 Epoch rev: 56075 Checksum: 317
Satellite: SO-50 Catalog number: 27607 Epoch time: 12180.44457001 Element set: 798 Inclination: 064.5589 deg RA of node: 260.6544 deg Eccentricity: 0.0082269 Arg of perigee: 246.3047 deg Mean anomaly: 112.9406 deg Mean motion: 14.72412424 rev/day Decay rate: 2.63e-06 rev/day^2 Epoch rev: 51162 Checksum: 295
Satellite: CO-55 Catalog number: 27844 Epoch time: 12179.55379807 Element set: 405 Inclination: 098.7031 deg RA of node: 187.7808 deg Eccentricity: 0.0009373 Arg of perigee: 187.7761 deg Mean anomaly: 172.3257 deg Mean motion: 14.21034600 rev/day Decay rate: 1.41e-06 rev/day^2 Epoch rev: 46636 Checksum: 323
Satellite: CO-57 Catalog number: 27848 Epoch time: 12179.55925885 Element set: 0356 Inclination: 098.7111 deg RA of node: 187.1252 deg Eccentricity: 0.0009063 Arg of perigee: 192.9189 deg Mean anomaly: 167.1748 deg Mean motion: 14.20784602 rev/day Decay rate: 9.4e-07 rev/day^2 Epoch rev: 46630 Checksum: 343
Satellite: AO-51 Catalog number: 28375 Epoch time: 12180.19039760 Element set: 302 Inclination: 098.1482 deg RA of node: 144.9538 deg Eccentricity: 0.0084530 Arg of perigee: 008.2218 deg Mean anomaly: 352.0331 deg Mean motion: 14.40959915 rev/day Decay rate: 2.18e-06 rev/day^2 Epoch rev: 42035 Checksum: 289
Satellite: CP3 Catalog number: 31129 Epoch time: 12179.54948691 Element set: 0201 Inclination: 097.8790 deg RA of node: 186.7151 deg Eccentricity: 0.0102641 Arg of perigee: 090.7933 deg Mean anomaly: 270.5038 deg Mean motion: 14.53093634 rev/day Decay rate: 1.46e-06 rev/day^2 Epoch rev: 27548 Checksum: 311
Satellite: CO-65 Catalog number: 32785 Epoch time: 12179.77011332 Element set: 346 Inclination: 097.7990 deg RA of node: 240.5720 deg Eccentricity: 0.0015341 Arg of perigee: 031.2891 deg Mean anomaly: 328.9206 deg Mean motion: 14.83015413 rev/day Decay rate: 1.43e-06 rev/day^2 Epoch rev: 22533 Checksum: 285
Satellite: PRISM Catalog number: 33493 Epoch time: 12180.38639719 Element set: 829 Inclination: 098.1727 deg RA of node: 321.2167 deg Eccentricity: 0.0017485 Arg of perigee: 260.1402 deg Mean anomaly: 099.7848 deg Mean motion: 14.83938330 rev/day Decay rate: 1.047e-05 rev/day^2 Epoch rev: 18541 Checksum: 321
Satellite: SOHLA-1 Catalog number: 33496 Epoch time: 12180.33598049 Element set: 763 Inclination: 098.1047 deg RA of node: 291.9976 deg Eccentricity: 0.0007227 Arg of perigee: 013.2575 deg Mean anomaly: 346.8815 deg Mean motion: 14.69983341 rev/day Decay rate: 6.9e-07 rev/day^2 Epoch rev: 18388 Checksum: 345
Satellite: SO-67 Catalog number: 35870 Epoch time: 12180.40988177 Element set: 89 Inclination: 097.2310 deg RA of node: 215.7623 deg Eccentricity: 0.0003628 Arg of perigee: 111.8584 deg Mean anomaly: 343.9169 deg Mean motion: 15.23904411 rev/day Decay rate: 1.997e-05 rev/day^2 Epoch rev: 15432 Checksum: 319
Satellite: TISAT-1 Catalog number: 36799 Epoch time: 12180.41382041 Element set: 105 Inclination: 098.0616 deg RA of node: 256.8307 deg Eccentricity: 0.0016036 Arg of perigee: 132.9237 deg Mean anomaly: 227.3331 deg Mean motion: 14.81993405 rev/day Decay rate: 8.03e-06 rev/day^2 Epoch rev: 10615 Checksum: 279
Satellite: STUDSAT Catalog number: 36801 Epoch time: 12179.92475958 Element set: 0433 Inclination: 098.0740 deg RA of node: 257.1004 deg Eccentricity: 0.0014162 Arg of perigee: 122.5589 deg Mean anomaly: 237.6989 deg Mean motion: 14.84403212 rev/day Decay rate: 2.057e-05 rev/day^2 Epoch rev: 10611 Checksum: 294
Satellite: FO-69 Catalog number: 37227 Epoch time: 12179.46825757 Element set: 0219 Inclination: 071.9703 deg RA of node: 289.2712 deg Eccentricity: 0.0018108 Arg of perigee: 298.3339 deg Mean anomaly: 061.6016 deg Mean motion: 14.77092260 rev/day Decay rate: 1.66e-06 rev/day^2 Epoch rev: 03761 Checksum: 323
Satellite: FO-70 Catalog number: 37380 Epoch time: 12179.47554455 Element set: 0223 Inclination: 071.9743 deg RA of node: 289.8278 deg Eccentricity: 0.0018623 Arg of perigee: 295.0880 deg Mean anomaly: 064.8372 deg Mean motion: 14.76843679 rev/day Decay rate: 2.08e-06 rev/day^2 Epoch rev: 03750 Checksum: 341
Satellite: ALMASAT-1 Catalog number: 38078 Epoch time: 12180.40188671 Element set: 337 Inclination: 069.4963 deg RA of node: 291.8543 deg Eccentricity: 0.0758813 Arg of perigee: 234.7198 deg Mean anomaly: 118.0673 deg Mean motion: 14.09454130 rev/day Decay rate: 1.2016e-04 rev/day^2 Epoch rev: 1913 Checksum: 311
Satellite: XATCOBEO Catalog number: 38082 Epoch time: 12180.41768838 Element set: 351 Inclination: 069.4955 deg RA of node: 289.7003 deg Eccentricity: 0.0736145 Arg of perigee: 233.5108 deg Mean anomaly: 119.6046 deg Mean motion: 14.16750061 rev/day Decay rate: 2.7905e-04 rev/day^2 Epoch rev: 1918 Checksum: 309
/EX SB KEPS @ AMSAT $ORB12180.W Orbital Elements 12180.WEATHER
HR AMSAT ORBITAL ELEMENTS FOR WEATHER SATELLITES FROM WA5QGD FORT WORTH,TX June 28, 2012 Send SUBSCRIBE KEPS/UNSUBSCRIBE KEPS to majordomo@amsat.org only BID: ORB12180.W TO ALL RADIO AMATEURS BT
Satellite: NOAA-10 Catalog number: 16969 Epoch time: 12179.81387686 Element set: 0978 Inclination: 098.5795 deg RA of node: 208.6787 deg Eccentricity: 0.0011706 Arg of perigee: 199.9976 deg Mean anomaly: 160.0726 deg Mean motion: 14.27560152 rev/day Decay rate: 1.03e-06 rev/day^2 Epoch rev: 34138 Checksum: 357
